Location: Salillas
(41.9950°N, 0.2228°W)
Time: 02:20:13
(UTC+00:00)

Meteor 1-21 Rocket - Pass Details

Date: 29 March 2020
Orbit: 833 x 907 km, 81.2° (Epoch: 05 June)

Event Time Altitude Azimuth Distance (km) Brightness Sun altitude
Rises 20:00:38 0° 354° (N) 3,412 7.8 -18.2°
Reaches altitude 10° 20:03:07 10° 358° (N) 2,466 6.9 -18.7°
Maximum altitude 20:08:36 57° 77° (ENE) 981 4.2 -19.6°
Enters shadow 20:10:41 36° 137° (SE) 1,305 4.7 -19.9°
